Time,TemperatureF,DewpointF,PressureIn,WindDirection,WindDirectionDegrees,WindSpeedMPH,WindSpeedGustMPH,Humidity,HourlyPrecipIn,Conditions,Clouds,dailyrainin,SoftwareType,DateUTC
2013-01-22 00:00:00,29.4,27.6,29.79,NNE,19,0.0,0.0,93,0.00,,,0.00,Wunderground v.1.15,2013-01-22 05:00:00,
2013-01-22 00:01:00,29.4,27.6,29.79,NNE,19,0.0,0.0,93,0.00,,,0.00,Wunderground v.1.15,2013-01-22 05:01:00,
2013-01-22 00:02:00,29.4,27.6,29.79,NNE,19,0.0,0.0,93,0.00,,,0.00,Wunderground v.1.15,2013-01-22 05:02:00,
2013-01-22 00:07:00,29.3,27.5,29.79,NNE,12,0.0,0.0,93,0.00,,,0.00,Wunderground v.1.15,2013-01-22 05:07:00,
2013-01-22 00:12:00,29.3,27.5,29.78,North,11,0.0,0.0,93,0.00,,,0.00,Wunderground v.1.15,2013-01-22 05:12:00,
2013-01-22 00:18:00,29.2,27.4,29.78,NNE,32,0.0,0.0,93,0.00,,,0.00,Wunderground v.1.15,2013-01-22 05:18:00,
2013-01-22 00:23:00,29.1,27.3,29.78,NNW,335,0.0,0.0,93,0.00,,,0.00,Wunderground v.1.15,2013-01-22 05:23:00,
2013-01-22 00:29:00,29.0,27.2,29.78,North,351,0.0,0.0,93,0.00,,,0.00,Wunderground v.1.15,2013-01-22 05:29:00,
2013-01-22 00:35:00,29.0,27.2,29.77,North,358,0.0,0.0,93,0.00,,,0.00,Wunderground v.1.15,2013-01-22 05:35:00,
2013-01-22 00:41:00,28.9,26.9,29.78,NNE,18,0.0,0.0,92,0.00,,,0.00,Wunderground v.1.15,2013-01-22 05:41:00,
2013-01-22 00:47:00,28.9,26.9,29.77,NNW,330,0.0,0.0,92,0.00,,,0.00,Wunderground v.1.15,2013-01-22 05:47:00,
2013-01-22 00:53:00,28.8,26.8,29.78,North,10,0.0,0.0,92,0.00,,,0.00,Wunderground v.1.15,2013-01-22 05:53:00,
2013-01-22 00:59:00,28.7,26.7,29.78,NW,304,0.0,0.0,92,0.00,,,0.00,Wunderground v.1.15,2013-01-22 05:59:00,
2013-01-22 01:04:00,28.7,26.7,29.78,NNW,342,0.0,0.0,92,0.00,,,0.00,Wunderground v.1.15,2013-01-22 06:04:00,
2013-01-22 01:10:00,28.7,26.7,29.79,NW,312,0.0,0.0,92,0.00,,,0.00,Wunderground v.1.15,2013-01-22 06:10:00,
2013-01-22 01:16:00,28.5,26.5,29.79,NW,319,0.0,0.0,92,0.00,,,0.00,Wunderground v.1.15,2013-01-22 06:16:00,
2013-01-22 01:22:00,28.5,26.5,29.79,NW,317,0.0,0.0,92,0.00,,,0.00,Wunderground v.1.15,2013-01-22 06:22:00,
2013-01-22 01:28:00,28.2,26.2,29.79,NW,326,1.0,4.0,92,0.00,,,0.00,Wunderground v.1.15,2013-01-22 06:28:00,
2013-01-22 01:33:00,28.0,26.0,29.79,NW,320,1.0,3.0,92,0.00,,,0.00,Wunderground v.1.15,2013-01-22 06:33:00,
2013-01-22 01:39:00,27.8,25.8,29.79,NW,313,2.0,4.0,92,0.00,,,0.00,Wunderground v.1.15,2013-01-22 06:39:00,
2013-01-22 01:44:00,27.6,25.6,29.79,NNW,336,2.0,3.0,92,0.00,,,0.00,Wunderground v.1.15,2013-01-22 06:44:00,
2013-01-22 01:50:00,27.4,25.4,29.79,NW,323,2.0,2.0,92,0.00,,,0.00,Wunderground v.1.15,2013-01-22 06:50:00,
2013-01-22 01:56:00,27.1,25.1,29.79,North,352,1.0,2.0,92,0.00,,,0.00,Wunderground v.1.15,2013-01-22 06:56:00,
2013-01-22 02:01:00,27.0,24.7,29.79,NNW,333,1.0,1.0,91,0.00,,,0.00,Wunderground v.1.15,2013-01-22 07:01:00,
2013-01-22 02:07:00,26.9,24.6,29.79,NW,316,0.0,1.0,91,0.00,,,0.00,Wunderground v.1.15,2013-01-22 07:07:00,
2013-01-22 02:13:00,26.8,24.8,29.79,NW,311,0.0,3.0,92,0.00,,,0.00,Wunderground v.1.15,2013-01-22 07:13:00,
2013-01-22 02:19:00,26.7,24.7,29.79,North,359,1.0,3.0,92,0.00,,,0.00,Wunderground v.1.15,2013-01-22 07:19:00,
2013-01-22 02:25:00,26.7,24.7,29.78,NW,310,1.0,4.0,92,0.00,,,0.00,Wunderground v.1.15,2013-01-22 07:25:00,
2013-01-22 02:31:00,26.7,24.7,29.78,NNW,338,1.0,6.0,92,0.00,,,0.00,Wunderground v.1.15,2013-01-22 07:31:00,
2013-01-22 02:37:00,26.6,24.6,29.78,NW,306,1.0,6.0,92,0.00,,,0.00,Wunderground v.1.15,2013-01-22 07:37:00,
2013-01-22 02:43:00,26.5,24.5,29.77,NW,324,1.0,6.0,92,0.00,,,0.00,Wunderground v.1.15,2013-01-22 07:43:00,
2013-01-22 02:49:00,26.2,23.9,29.77,NW,307,2.0,6.0,91,0.00,,,0.00,Wunderground v.1.15,2013-01-22 07:49:00,
2013-01-22 02:55:00,26.1,23.8,29.77,NW,305,2.0,6.0,91,0.00,,,0.00,Wunderground v.1.15,2013-01-22 07:55:00,
2013-01-22 03:00:00,26.1,23.8,29.77,WNW,300,2.0,2.0,91,0.00,,,0.00,Wunderground v.1.15,2013-01-22 08:00:00,
2013-01-22 03:06:00,26.1,23.8,29.77,NW,323,1.0,2.0,91,0.00,,,0.00,Wunderground v.1.15,2013-01-22 08:06:00,
2013-01-22 03:11:00,26.1,23.8,29.77,North,1,1.0,1.0,91,0.00,,,0.00,Wunderground v.1.15,2013-01-22 08:11:00,
2013-01-22 03:17:00,26.1,23.8,29.76,NW,316,1.0,3.0,91,0.00,,,0.00,Wunderground v.1.15,2013-01-22 08:17:00,
2013-01-22 03:23:00,26.1,23.8,29.76,NW,321,1.0,3.0,91,0.00,,,0.00,Wunderground v.1.15,2013-01-22 08:23:00,
2013-01-22 03:29:00,26.0,24.0,29.77,NW,307,0.0,3.0,92,0.00,,,0.00,Wunderground v.1.15,2013-01-22 08:29:00,
2013-01-22 03:35:00,26.0,24.0,29.76,WNW,303,0.0,5.0,92,0.00,,,0.00,Wunderground v.1.15,2013-01-22 08:35:00,
2013-01-22 03:41:00,26.0,24.0,29.76,WNW,303,0.0,5.0,92,0.00,,,0.00,Wunderground v.1.15,2013-01-22 08:41:00,
2013-01-22 03:47:00,26.0,23.7,29.76,NNW,335,0.0,5.0,91,0.00,,,0.00,Wunderground v.1.15,2013-01-22 08:47:00,
2013-01-22 03:53:00,25.9,23.6,29.76,NNW,335,0.0,5.0,91,0.00,,,0.00,Wunderground v.1.15,2013-01-22 08:53:00,
2013-01-22 03:59:00,25.9,23.6,29.76,NNW,335,0.0,5.0,91,0.00,,,0.00,Wunderground v.1.15,2013-01-22 08:59:00,
2013-01-22 04:04:00,25.8,23.5,29.76,NNW,335,0.0,0.0,91,0.00,,,0.00,Wunderground v.1.15,2013-01-22 09:04:00,
2013-01-22 04:10:00,25.7,23.4,29.76,NW,311,0.0,0.0,91,0.00,,,0.00,Wunderground v.1.15,2013-01-22 09:10:00,
2013-01-22 04:16:00,25.6,23.3,29.77,NNW,346,1.0,2.0,91,0.00,,,0.00,Wunderground v.1.15,2013-01-22 09:16:00,
2013-01-22 04:21:00,25.6,23.3,29.77,West,279,1.0,3.0,91,0.00,,,0.00,Wunderground v.1.15,2013-01-22 09:21:00,
2013-01-22 04:27:00,25.8,23.3,29.76,NW,318,2.0,3.0,90,0.00,,,0.00,Wunderground v.1.15,2013-01-22 09:27:00,
2013-01-22 04:33:00,25.8,23.0,29.77,WNW,297,2.0,3.0,89,0.00,,,0.00,Wunderground v.1.15,2013-01-22 09:33:00,
2013-01-22 04:39:00,25.6,22.3,29.77,NW,324,2.0,4.0,87,0.00,,,0.00,Wunderground v.1.15,2013-01-22 09:39:00,
2013-01-22 04:45:00,25.6,21.7,29.76,WNW,302,2.0,5.0,85,0.00,,,0.00,Wunderground v.1.15,2013-01-22 09:45:00,
2013-01-22 04:51:00,25.5,21.3,29.77,WNW,290,2.0,3.0,84,0.00,,,0.00,Wunderground v.1.15,2013-01-22 09:51:00,
2013-01-22 04:57:00,25.4,21.2,29.77,WNW,302,2.0,4.0,84,0.00,,,0.00,Wunderground v.1.15,2013-01-22 09:57:00,
2013-01-22 05:03:00,25.5,21.3,29.77,NW,311,2.0,4.0,84,0.00,,,0.00,Wunderground v.1.15,2013-01-22 10:03:00,
2013-01-22 05:09:00,25.5,21.6,29.77,WNW,293,3.0,4.0,85,0.00,,,0.00,Wunderground v.1.15,2013-01-22 10:09:00,
2013-01-22 05:15:00,25.4,21.5,29.77,NNW,345,2.0,4.0,85,0.00,,,0.00,Wunderground v.1.15,2013-01-22 10:15:00,
2013-01-22 05:20:00,25.4,21.8,29.78,WNW,302,3.0,5.0,86,0.00,,,0.00,Wunderground v.1.15,2013-01-22 10:20:00,
2013-01-22 05:26:00,25.4,22.1,29.78,NNW,336,3.0,5.0,87,0.00,,,0.00,Wunderground v.1.15,2013-01-22 10:26:00,
2013-01-22 05:32:00,25.6,22.5,29.77,WNW,288,3.0,6.0,88,0.00,,,0.00,Wunderground v.1.15,2013-01-22 10:32:00,
2013-01-22 05:38:00,25.7,22.6,29.78,NNW,338,3.0,6.0,88,0.00,,,0.00,Wunderground v.1.15,2013-01-22 10:38:00,
2013-01-22 05:44:00,25.7,22.9,29.78,WNW,288,3.0,6.0,89,0.00,,,0.00,Wunderground v.1.15,2013-01-22 10:44:00,
2013-01-22 05:50:00,25.6,22.8,29.78,West,264,4.0,4.0,89,0.00,,,0.00,Wunderground v.1.15,2013-01-22 10:50:00,
2013-01-22 05:56:00,25.7,23.2,29.79,NW,309,4.0,6.0,90,0.00,,,0.00,Wunderground v.1.15,2013-01-22 10:56:00,
2013-01-22 06:02:00,25.6,22.8,29.79,NW,316,3.0,4.0,89,0.00,,,0.00,Wunderground v.1.15,2013-01-22 11:02:00,
2013-01-22 06:08:00,25.4,22.3,29.79,WNW,294,3.0,6.0,88,0.00,,,0.00,Wunderground v.1.15,2013-01-22 11:08:00,
2013-01-22 06:14:00,25.2,21.3,29.79,WNW,288,3.0,4.0,85,0.00,,,0.00,Wunderground v.1.15,2013-01-22 11:14:00,
2013-01-22 06:20:00,25.0,20.8,29.79,WSW,258,4.0,5.0,84,0.00,,,0.00,Wunderground v.1.15,2013-01-22 11:20:00,
2013-01-22 06:26:00,25.1,21.2,29.80,WNW,295,4.0,5.0,85,0.00,,,0.00,Wunderground v.1.15,2013-01-22 11:26:00,
2013-01-22 06:31:00,25.0,20.8,29.80,West,276,4.0,9.0,84,0.00,,,0.00,Wunderground v.1.15,2013-01-22 11:31:00,
2013-01-22 06:37:00,24.9,20.8,29.80,NW,305,4.0,9.0,84,0.00,,,0.00,Wunderground v.1.15,2013-01-22 11:37:00,
2013-01-22 06:43:00,24.9,21.0,29.80,North,355,3.0,9.0,85,0.00,,,0.00,Wunderground v.1.15,2013-01-22 11:43:00,
2013-01-22 06:49:00,24.9,20.8,29.80,North,1,3.0,10.0,84,0.00,,,0.00,Wunderground v.1.15,2013-01-22 11:49:00,
2013-01-22 06:55:00,25.0,20.8,29.81,West,261,3.0,9.0,84,0.00,,,0.00,Wunderground v.1.15,2013-01-22 11:55:00,
2013-01-22 07:00:00,25.0,20.8,29.81,West,281,3.0,4.0,84,0.00,,,0.00,Wunderground v.1.15,2013-01-22 12:00:00,
2013-01-22 07:05:00,24.9,20.8,29.82,NW,316,4.0,6.0,84,0.00,,,0.00,Wunderground v.1.15,2013-01-22 12:05:00,
2013-01-22 07:11:00,24.6,20.5,29.82,NNW,333,5.0,5.0,84,0.00,,,0.00,Wunderground v.1.15,2013-01-22 12:11:00,
2013-01-22 07:16:00,24.4,20.0,29.82,West,279,5.0,7.0,83,0.00,,,0.00,Wunderground v.1.15,2013-01-22 12:16:00,
2013-01-22 07:22:00,24.3,20.2,29.83,NW,319,5.0,6.0,84,0.00,,,0.00,Wunderground v.1.15,2013-01-22 12:22:00,
2013-01-22 07:28:00,24.4,19.7,29.83,West,278,4.0,10.0,82,0.00,,,0.00,Wunderground v.1.15,2013-01-22 12:28:00,
2013-01-22 07:34:00,24.2,19.2,29.83,NNW,328,4.0,10.0,81,0.00,,,0.00,Wunderground v.1.15,2013-01-22 12:34:00,
2013-01-22 07:40:00,24.0,18.4,29.83,West,277,5.0,10.0,79,0.00,,,0.00,Wunderground v.1.15,2013-01-22 12:40:00,
2013-01-22 07:45:00,24.0,18.7,29.83,NNW,338,5.0,10.0,80,0.00,,,0.00,Wunderground v.1.15,2013-01-22 12:45:00,
2013-01-22 07:51:00,24.0,18.7,29.83,West,271,6.0,10.0,80,0.00,,,0.00,Wunderground v.1.15,2013-01-22 12:51:00,
2013-01-22 07:57:00,23.8,18.2,29.83,NW,307,8.0,10.0,79,0.00,,,0.00,Wunderground v.1.15,2013-01-22 12:57:00,
2013-01-22 08:02:00,23.9,18.0,29.84,NW,305,7.0,8.0,78,0.00,,,0.00,Wunderground v.1.15,2013-01-22 13:02:00,
2013-01-22 08:07:00,24.0,18.1,29.84,NNE,26,6.0,9.0,78,0.00,,,0.00,Wunderground v.1.15,2013-01-22 13:07:00,
2013-01-22 08:12:00,24.0,17.8,29.84,NW,320,6.0,6.0,77,0.00,,,0.00,Wunderground v.1.15,2013-01-22 13:12:00,
2013-01-22 08:17:00,24.1,17.9,29.85,WNW,295,6.0,9.0,77,0.00,,,0.00,Wunderground v.1.15,2013-01-22 13:17:00,
2013-01-22 08:23:00,24.0,17.5,29.85,WNW,282,7.0,13.0,76,0.00,,,0.00,Wunderground v.1.15,2013-01-22 13:23:00,
2013-01-22 08:28:00,23.9,16.8,29.85,WNW,293,7.0,13.0,74,0.00,,,0.00,Wunderground v.1.15,2013-01-22 13:28:00,
2013-01-22 08:34:00,23.5,16.4,29.86,WNW,300,8.0,19.0,74,0.00,,,0.00,Wunderground v.1.15,2013-01-22 13:34:00,
2013-01-22 08:39:00,23.4,16.3,29.86,NW,304,8.0,19.0,74,0.00,,,0.00,Wunderground v.1.15,2013-01-22 13:39:00,
2013-01-22 08:45:00,23.1,15.7,29.86,NW,310,8.0,19.0,73,0.00,,,0.00,Wunderground v.1.15,2013-01-22 13:45:00,
2013-01-22 08:51:00,23.1,15.1,29.87,NNW,338,8.0,19.0,71,0.00,,,0.00,Wunderground v.1.15,2013-01-22 13:51:00,
2013-01-22 08:57:00,23.1,14.8,29.87,West,262,8.0,19.0,70,0.00,,,0.00,Wunderground v.1.15,2013-01-22 13:57:00,
2013-01-22 09:02:00,23.3,15.3,29.87,NW,321,9.0,12.0,71,0.00,,,0.00,Wunderground v.1.15,2013-01-22 14:02:00,
2013-01-22 09:08:00,23.5,14.5,29.87,West,277,10.0,13.0,68,0.00,,,0.00,Wunderground v.1.15,2013-01-22 14:08:00,
2013-01-22 09:14:00,23.4,14.0,29.87,NW,308,11.0,13.0,67,0.00,,,0.00,Wunderground v.1.15,2013-01-22 14:14:00,
2013-01-22 09:20:00,23.7,14.0,29.87,NW,316,9.0,9.0,66,0.00,,,0.00,Wunderground v.1.15,2013-01-22 14:20:00,
2013-01-22 09:25:00,24.0,13.9,29.88,North,358,9.0,12.0,65,0.00,,,0.00,Wunderground v.1.15,2013-01-22 14:25:00,
2013-01-22 09:31:00,23.9,13.5,29.88,NNW,332,10.0,18.0,64,0.00,,,0.00,Wunderground v.1.15,2013-01-22 14:31:00,
2013-01-22 09:37:00,24.2,13.4,29.88,West,270,9.0,18.0,63,0.00,,,0.00,Wunderground v.1.15,2013-01-22 14:37:00,
2013-01-22 09:43:00,24.2,13.0,29.89,West,280,8.0,18.0,62,0.00,,,0.00,Wunderground v.1.15,2013-01-22 14:43:00,
2013-01-22 09:49:00,24.0,12.1,29.89,North,349,10.0,18.0,60,0.00,,,0.00,Wunderground v.1.15,2013-01-22 14:49:00,
2013-01-22 09:55:00,24.3,12.0,29.89,NW,304,9.0,18.0,59,0.00,,,0.00,Wunderground v.1.15,2013-01-22 14:55:00,
2013-01-22 10:00:00,24.4,12.5,29.88,North,349,9.0,9.0,60,0.00,,,0.00,Wunderground v.1.15,2013-01-22 15:00:00,
2013-01-22 10:06:00,24.5,12.2,29.89,West,264,10.0,12.0,59,0.00,,,0.00,Wunderground v.1.15,2013-01-22 15:06:00,
2013-01-22 10:12:00,24.4,11.3,29.89,NNW,328,11.0,14.0,57,0.00,,,0.00,Wunderground v.1.15,2013-01-22 15:12:00,
2013-01-22 10:18:00,24.7,11.2,29.88,NW,325,10.0,14.0,56,0.00,,,0.00,Wunderground v.1.15,2013-01-22 15:18:00,
2013-01-22 10:24:00,24.7,10.0,29.89,NNW,330,10.0,11.0,53,0.00,,,0.00,Wunderground v.1.15,2013-01-22 15:24:00,
2013-01-22 10:29:00,24.9,8.9,29.89,West,262,10.0,21.0,50,0.00,,,0.00,Wunderground v.1.15,2013-01-22 15:29:00,
2013-01-22 10:34:00,24.9,8.9,29.89,NW,312,10.0,21.0,50,0.00,,,0.00,Wunderground v.1.15,2013-01-22 15:34:00,
2013-01-22 10:40:00,25.1,8.6,29.89,West,261,9.0,21.0,49,0.00,,,0.00,Wunderground v.1.15,2013-01-22 15:40:00,
2013-01-22 10:46:00,25.2,7.8,29.88,WNW,290,10.0,21.0,47,0.00,,,0.00,Wunderground v.1.15,2013-01-22 15:46:00,
2013-01-22 10:51:00,25.1,7.7,29.88,North,359,10.0,21.0,47,0.00,,,0.00,Wunderground v.1.15,2013-01-22 15:51:00,
2013-01-22 10:57:00,25.3,7.4,29.89,West,266,10.0,21.0,46,0.00,,,0.00,Wunderground v.1.15,2013-01-22 15:57:00,
2013-01-22 11:03:00,25.3,6.4,29.89,West,271,10.0,15.0,44,0.00,,,0.00,Wunderground v.1.15,2013-01-22 16:03:00,
2013-01-22 11:09:00,25.2,5.8,29.88,NNW,347,10.0,15.0,43,0.00,,,0.00,Wunderground v.1.15,2013-01-22 16:09:00,
2013-01-22 11:15:00,25.5,6.1,29.89,North,352,9.0,18.0,43,0.00,,,0.00,Wunderground v.1.15,2013-01-22 16:15:00,
2013-01-22 11:20:00,25.6,6.2,29.89,NW,325,8.0,12.0,43,0.00,,,0.00,Wunderground v.1.15,2013-01-22 16:20:00,
2013-01-22 11:26:00,25.5,6.1,29.89,NNW,342,8.0,12.0,43,0.00,,,0.00,Wunderground v.1.15,2013-01-22 16:26:00,
2013-01-22 11:31:00,25.6,6.7,29.89,West,281,9.0,24.0,44,0.00,,,0.00,Wunderground v.1.15,2013-01-22 16:31:00,
2013-01-22 11:37:00,25.7,6.3,29.89,NW,325,9.0,24.0,43,0.00,,,0.00,Wunderground v.1.15,2013-01-22 16:37:00,
2013-01-22 11:42:00,25.8,6.9,29.89,WNW,288,8.0,24.0,44,0.00,,,0.00,Wunderground v.1.15,2013-01-22 16:42:00,
2013-01-22 11:48:00,25.9,5.4,29.89,NW,309,8.0,24.0,41,0.00,,,0.00,Wunderground v.1.15,2013-01-22 16:48:00,
2013-01-22 11:53:00,25.7,4.1,29.89,NW,305,9.0,24.0,39,0.00,,,0.00,Wunderground v.1.15,2013-01-22 16:53:00,
2013-01-22 11:59:00,26.0,5.5,29.89,WNW,284,8.0,24.0,41,0.00,,,0.00,Wunderground v.1.15,2013-01-22 16:59:00,
2013-01-22 12:04:00,26.0,4.9,29.89,West,278,7.0,14.0,40,0.00,,,0.00,Wunderground v.1.15,2013-01-22 17:04:00,
2013-01-22 12:10:00,25.9,4.3,29.89,NNW,330,8.0,12.0,39,0.00,,,0.00,Wunderground v.1.15,2013-01-22 17:10:00,
2013-01-22 12:15:00,25.8,3.6,29.89,NNW,329,9.0,14.0,38,0.00,,,0.00,Wunderground v.1.15,2013-01-22 17:15:00,
2013-01-22 12:21:00,26.1,5.0,29.89,WNW,285,8.0,8.0,40,0.00,,,0.00,Wunderground v.1.15,2013-01-22 17:21:00,
2013-01-22 12:27:00,26.0,3.8,29.90,NW,313,7.0,13.0,38,0.00,,,0.00,Wunderground v.1.15,2013-01-22 17:27:00,
2013-01-22 12:32:00,25.7,4.1,29.90,NNW,341,8.0,19.0,39,0.00,,,0.00,Wunderground v.1.15,2013-01-22 17:32:00,
2013-01-22 12:38:00,26.2,4.6,29.90,NNW,330,7.0,19.0,39,0.00,,,0.00,Wunderground v.1.15,2013-01-22 17:38:00,
2013-01-22 12:43:00,26.0,4.4,29.90,WSW,249,7.0,19.0,39,0.00,,,0.00,Wunderground v.1.15,2013-01-22 17:43:00,
2013-01-22 12:49:00,25.8,3.1,29.89,NW,312,8.0,19.0,37,0.00,,,0.00,Wunderground v.1.15,2013-01-22 17:49:00,
2013-01-22 12:54:00,25.7,3.6,29.89,NNW,345,9.0,19.0,38,0.00,,,0.00,Wunderground v.1.15,2013-01-22 17:54:00,
2013-01-22 13:00:00,26.0,3.2,29.89,WNW,302,9.0,14.0,37,0.00,,,0.01,Wunderground v.1.15,2013-01-22 18:00:00,
2013-01-22 13:06:00,26.0,2.7,29.89,West,271,8.0,14.0,36,0.00,,,0.01,Wunderground v.1.15,2013-01-22 18:06:00,
2013-01-22 13:12:00,25.8,3.1,29.89,WSW,241,9.0,12.0,37,0.00,,,0.01,Wunderground v.1.15,2013-01-22 18:12:00,
2013-01-22 13:18:00,25.6,2.3,29.90,WSW,245,9.0,12.0,36,0.00,,,0.01,Wunderground v.1.15,2013-01-22 18:18:00,
2013-01-22 13:23:00,25.9,3.2,29.90,WSW,249,8.0,16.0,37,0.00,,,0.01,Wunderground v.1.15,2013-01-22 18:23:00,
2013-01-22 13:29:00,25.9,3.2,29.89,West,277,8.0,16.0,37,0.00,,,0.01,Wunderground v.1.15,2013-01-22 18:29:00,
2013-01-22 13:35:00,25.8,4.2,29.89,WNW,283,8.0,19.0,39,0.00,,,0.01,Wunderground v.1.15,2013-01-22 18:35:00,
2013-01-22 13:41:00,26.1,3.9,29.89,NW,326,7.0,19.0,38,0.00,,,0.01,Wunderground v.1.15,2013-01-22 18:41:00,
2013-01-22 13:46:00,26.1,4.5,29.90,NW,309,7.0,19.0,39,0.00,,,0.01,Wunderground v.1.15,2013-01-22 18:46:00,
2013-01-22 13:52:00,25.9,3.2,29.90,WSW,245,7.0,19.0,37,0.00,,,0.01,Wunderground v.1.15,2013-01-22 18:52:00,
2013-01-22 13:58:00,25.2,2.5,29.90,West,281,8.0,19.0,37,0.00,,,0.01,Wunderground v.1.15,2013-01-22 18:58:00,
2013-01-22 14:04:00,24.4,1.8,29.90,WSW,257,10.0,15.0,37,0.00,,,0.01,Wunderground v.1.15,2013-01-22 19:04:00,
2013-01-22 14:09:00,24.5,1.9,29.90,NW,312,9.0,15.0,37,0.00,,,0.01,Wunderground v.1.15,2013-01-22 19:09:00,
2013-01-22 14:15:00,24.4,1.8,29.91,NW,314,8.0,10.0,37,0.00,,,0.01,Wunderground v.1.15,2013-01-22 19:15:00,
2013-01-22 14:21:00,24.8,3.3,29.91,NNW,332,7.0,7.0,39,0.00,,,0.01,Wunderground v.1.15,2013-01-22 19:21:00,
2013-01-22 14:26:00,24.6,2.6,29.91,WNW,285,8.0,12.0,38,0.00,,,0.01,Wunderground v.1.15,2013-01-22 19:26:00,
2013-01-22 14:32:00,24.6,2.0,29.91,WNW,285,9.0,19.0,37,0.00,,,0.01,Wunderground v.1.15,2013-01-22 19:32:00,
2013-01-22 14:37:00,24.5,1.9,29.91,North,355,8.0,19.0,37,0.00,,,0.01,Wunderground v.1.15,2013-01-22 19:37:00,
2013-01-22 14:42:00,24.1,2.1,29.91,WNW,291,8.0,19.0,38,0.00,,,0.01,Wunderground v.1.15,2013-01-22 19:42:00,
2013-01-22 14:48:00,24.1,1.5,29.91,NW,319,8.0,19.0,37,0.00,,,0.01,Wunderground v.1.15,2013-01-22 19:48:00,
2013-01-22 14:54:00,24.2,1.6,29.92,WNW,282,8.0,19.0,37,0.00,,,0.01,Wunderground v.1.15,2013-01-22 19:54:00,
2013-01-22 14:59:00,23.9,1.4,29.92,NW,314,8.0,19.0,37,0.00,,,0.01,Wunderground v.1.15,2013-01-22 19:59:00,
2013-01-22 15:05:00,23.8,1.3,29.92,NW,304,7.0,11.0,37,0.00,,,0.01,Wunderground v.1.15,2013-01-22 20:05:00,
2013-01-22 15:11:00,23.6,-1.3,29.92,NW,321,8.0,9.0,33,0.00,,,0.01,Wunderground v.1.15,2013-01-22 20:11:00,
2013-01-22 15:16:00,23.5,0.4,29.92,WSW,248,7.0,9.0,36,0.00,,,0.01,Wunderground v.1.15,2013-01-22 20:16:00,
2013-01-22 15:22:00,23.7,0.0,29.92,NW,314,7.0,10.0,35,0.00,,,0.01,Wunderground v.1.15,2013-01-22 20:22:00,
2013-01-22 15:28:00,23.7,0.0,29.92,NW,309,8.0,13.0,35,0.00,,,0.01,Wunderground v.1.15,2013-01-22 20:28:00,
2013-01-22 15:34:00,23.7,1.2,29.92,ENE,58,7.0,18.0,37,0.00,,,0.01,Wunderground v.1.15,2013-01-22 20:34:00,
2013-01-22 15:40:00,23.5,0.4,29.92,WNW,297,8.0,18.0,36,0.00,,,0.01,Wunderground v.1.15,2013-01-22 20:40:00,
2013-01-22 15:45:00,23.4,0.3,29.93,North,349,9.0,18.0,36,0.00,,,0.01,Wunderground v.1.15,2013-01-22 20:45:00,
2013-01-22 15:51:00,23.2,0.1,29.93,WNW,300,8.0,11.0,36,0.00,,,0.01,Wunderground v.1.15,2013-01-22 20:51:00,
2013-01-22 15:57:00,23.2,0.1,29.93,WNW,293,7.0,18.0,36,0.00,,,0.01,Wunderground v.1.15,2013-01-22 20:57:00,
2013-01-22 16:02:00,23.1,0.1,29.94,West,275,7.0,9.0,36,0.00,,,0.01,Wunderground v.1.15,2013-01-22 21:02:00,
2013-01-22 16:08:00,23.0,0.0,29.94,WNW,282,6.0,10.0,36,0.00,,,0.01,Wunderground v.1.15,2013-01-22 21:08:00,
2013-01-22 16:13:00,22.9,-0.7,29.94,WNW,302,7.0,8.0,35,0.00,,,0.01,Wunderground v.1.15,2013-01-22 21:13:00,
2013-01-22 16:19:00,22.7,0.3,29.95,WNW,286,6.0,8.0,37,0.00,,,0.01,Wunderground v.1.15,2013-01-22 21:19:00,
2013-01-22 16:25:00,22.6,0.2,29.95,West,260,6.0,8.0,37,0.00,,,0.01,Wunderground v.1.15,2013-01-22 21:25:00,
2013-01-22 16:30:00,22.5,-1.1,29.95,West,271,7.0,7.0,35,0.00,,,0.01,Wunderground v.1.15,2013-01-22 21:30:00,
2013-01-22 16:35:00,22.6,-1.0,29.96,NNW,341,7.0,20.0,35,0.00,,,0.01,Wunderground v.1.15,2013-01-22 21:35:00,
2013-01-22 16:41:00,22.5,-0.5,29.96,WNW,301,6.0,20.0,36,0.00,,,0.01,Wunderground v.1.15,2013-01-22 21:41:00,
2013-01-22 16:47:00,22.4,-1.2,29.96,West,269,6.0,20.0,35,0.00,,,0.01,Wunderground v.1.15,2013-01-22 21:47:00,
2013-01-22 16:53:00,22.2,-0.7,29.96,WNW,286,6.0,20.0,36,0.00,,,0.01,Wunderground v.1.15,2013-01-22 21:53:00,
2013-01-22 16:59:00,22.3,0.5,29.97,WNW,300,6.0,20.0,38,0.00,,,0.01,Wunderground v.1.15,2013-01-22 21:59:00,
2013-01-22 17:04:00,22.2,-0.2,29.97,West,276,6.0,6.0,37,0.00,,,0.01,Wunderground v.1.15,2013-01-22 22:04:00,
2013-01-22 17:09:00,22.2,-0.2,29.98,WNW,297,6.0,7.0,37,0.00,,,0.01,Wunderground v.1.15,2013-01-22 22:09:00,
2013-01-22 17:14:00,22.1,-0.3,29.98,NW,321,4.0,7.0,37,0.00,,,0.01,Wunderground v.1.15,2013-01-22 22:14:00,
2013-01-22 17:20:00,22.1,-0.3,29.98,NW,316,4.0,8.0,37,0.00,,,0.01,Wunderground v.1.15,2013-01-22 22:20:00,
2013-01-22 17:26:00,22.1,-0.3,29.98,NNW,330,4.0,8.0,37,0.00,,,0.01,Wunderground v.1.15,2013-01-22 22:26:00,
2013-01-22 17:32:00,22.0,0.2,29.99,NW,312,3.0,17.0,38,0.00,,,0.01,Wunderground v.1.15,2013-01-22 22:32:00,
2013-01-22 17:38:00,21.8,0.0,29.99,WNW,291,3.0,17.0,38,0.00,,,0.01,Wunderground v.1.15,2013-01-22 22:38:00,
2013-01-22 17:44:00,22.0,0.2,29.99,North,355,5.0,17.0,38,0.00,,,0.01,Wunderground v.1.15,2013-01-22 22:44:00,
2013-01-22 17:49:00,22.1,0.3,30.00,NW,309,5.0,17.0,38,0.00,,,0.01,Wunderground v.1.15,2013-01-22 22:49:00,
2013-01-22 17:55:00,22.0,0.2,30.00,WNW,291,5.0,17.0,38,0.00,,,0.01,Wunderground v.1.15,2013-01-22 22:55:00,
2013-01-22 18:00:00,22.1,0.3,30.00,NW,318,5.0,8.0,38,0.00,,,0.01,Wunderground v.1.15,2013-01-22 23:00:00,
2013-01-22 18:06:00,22.3,0.5,30.00,WNW,285,7.0,12.0,38,0.00,,,0.01,Wunderground v.1.15,2013-01-22 23:06:00,
2013-01-22 18:12:00,22.1,0.3,30.01,WNW,297,6.0,6.0,38,0.00,,,0.01,Wunderground v.1.15,2013-01-22 23:12:00,
2013-01-22 18:18:00,22.0,-0.3,30.01,WNW,300,6.0,7.0,37,0.00,,,0.01,Wunderground v.1.15,2013-01-22 23:18:00,
2013-01-22 18:23:00,22.0,0.2,30.01,North,360,7.0,7.0,38,0.00,,,0.01,Wunderground v.1.15,2013-01-22 23:23:00,
2013-01-22 18:29:00,21.9,0.1,30.02,WNW,295,7.0,13.0,38,0.00,,,0.01,Wunderground v.1.15,2013-01-22 23:29:00,
2013-01-22 18:34:00,21.7,0.0,30.02,North,4,7.0,12.0,38,0.00,,,0.01,Wunderground v.1.15,2013-01-22 23:34:00,
2013-01-22 18:40:00,21.6,-0.7,30.03,NNW,342,6.0,12.0,37,0.00,,,0.01,Wunderground v.1.15,2013-01-22 23:40:00,
2013-01-22 18:45:00,21.4,0.2,30.03,NW,308,5.0,12.0,39,0.00,,,0.01,Wunderground v.1.15,2013-01-22 23:45:00,
2013-01-22 18:51:00,21.4,-0.3,30.03,NW,309,6.0,12.0,38,0.00,,,0.01,Wunderground v.1.15,2013-01-22 23:51:00,
2013-01-22 18:57:00,21.3,0.1,30.03,NNW,328,6.0,12.0,39,0.00,,,0.01,Wunderground v.1.15,2013-01-22 23:57:00,
2013-01-22 19:03:00,21.1,0.5,30.04,NW,304,6.0,9.0,40,0.00,,,0.01,Wunderground v.1.15,2013-01-23 00:03:00,
2013-01-22 19:09:00,21.1,0.5,30.04,SW,234,6.0,10.0,40,0.00,,,0.01,Wunderground v.1.15,2013-01-23 00:09:00,
2013-01-22 19:15:00,21.2,1.1,30.05,WNW,301,8.0,10.0,41,0.00,,,0.01,Wunderground v.1.15,2013-01-23 00:15:00,
2013-01-22 19:21:00,21.1,1.0,30.05,NW,318,8.0,12.0,41,0.00,,,0.01,Wunderground v.1.15,2013-01-23 00:21:00,
2013-01-22 19:27:00,20.9,0.9,30.05,NNW,335,9.0,15.0,41,0.00,,,0.01,Wunderground v.1.15,2013-01-23 00:27:00,
2013-01-22 19:33:00,20.7,0.7,30.05,NNW,327,8.0,15.0,41,0.00,,,0.01,Wunderground v.1.15,2013-01-23 00:33:00,
2013-01-22 19:39:00,20.6,0.1,30.05,WSW,252,9.0,15.0,40,0.00,,,0.01,Wunderground v.1.15,2013-01-23 00:39:00,
2013-01-22 19:45:00,20.6,-0.5,30.05,WNW,287,10.0,18.0,39,0.00,,,0.01,Wunderground v.1.15,2013-01-23 00:45:00,
2013-01-22 19:51:00,20.4,-0.1,30.05,NW,314,9.0,11.0,40,0.00,,,0.01,Wunderground v.1.15,2013-01-23 00:51:00,
2013-01-22 20:19:00,20.1,-2.6,30.06,NNW,328,8.0,15.0,36,0.00,,,0.01,Wunderground v.1.15,2013-01-23 01:19:00,
2013-01-22 20:25:00,20.1,-1.5,30.06,WNW,300,9.0,15.0,38,0.00,,,0.01,Wunderground v.1.15,2013-01-23 01:25:00,
2013-01-22 20:31:00,20.0,-0.5,30.06,NW,316,8.0,15.0,40,0.00,,,0.01,Wunderground v.1.15,2013-01-23 01:31:00,
2013-01-22 20:37:00,20.0,-1.6,30.07,North,349,9.0,15.0,38,0.00,,,0.01,Wunderground v.1.15,2013-01-23 01:37:00,
2013-01-22 20:43:00,19.8,-1.8,30.06,WNW,299,8.0,15.0,38,0.00,,,0.01,Wunderground v.1.15,2013-01-23 01:43:00,
2013-01-22 20:49:00,19.7,-1.3,30.07,North,352,8.0,15.0,39,0.00,,,0.01,Wunderground v.1.15,2013-01-23 01:49:00,
2013-01-22 20:55:00,19.6,-1.4,30.07,West,273,7.0,15.0,39,0.00,,,0.01,Wunderground v.1.15,2013-01-23 01:55:00,
2013-01-22 21:00:00,19.5,-0.9,30.07,North,360,6.0,-999.0,40,0.00,,,0.01,Wunderground v.1.15,2013-01-23 02:00:00,
2013-01-22 21:06:00,19.5,-2.0,30.07,West,274,6.0,-999.0,38,0.00,,,0.01,Wunderground v.1.15,2013-01-23 02:06:00,
2013-01-22 21:12:00,19.4,-1.6,30.07,NW,316,7.0,-999.0,39,0.00,,,0.01,Wunderground v.1.15,2013-01-23 02:12:00,
2013-01-22 21:19:00,19.3,-1.7,30.07,NW,324,6.0,-999.0,39,0.00,,,0.01,Wunderground v.1.15,2013-01-23 02:19:00,
2013-01-22 21:25:00,19.1,-1.8,30.08,WNW,288,6.0,-999.0,39,0.00,,,0.01,Wunderground v.1.15,2013-01-23 02:25:00,
2013-01-22 21:31:00,19.0,-2.5,30.09,West,281,7.0,-999.0,38,0.00,,,0.01,Wunderground v.1.15,2013-01-23 02:31:00,
2013-01-22 21:37:00,19.0,-3.0,30.08,NW,304,8.0,-999.0,37,0.00,,,0.01,Wunderground v.1.15,2013-01-23 02:37:00,
2013-01-22 21:43:00,19.0,-1.4,30.09,NNW,334,8.0,-999.0,40,0.00,,,0.01,Wunderground v.1.15,2013-01-23 02:43:00,
2013-01-22 21:49:00,18.9,-1.5,30.09,West,259,7.0,-999.0,40,0.00,,,0.01,Wunderground v.1.15,2013-01-23 02:49:00,
2013-01-22 21:55:00,18.8,-2.1,30.09,WNW,282,6.0,-999.0,39,0.00,,,0.01,Wunderground v.1.15,2013-01-23 02:55:00,
2013-01-22 22:01:00,18.7,-1.7,30.09,NW,317,7.0,-999.0,40,0.00,,,0.01,Wunderground v.1.15,2013-01-23 03:01:00,
2013-01-22 22:07:00,18.6,-2.3,30.09,WNW,293,7.0,-999.0,39,0.00,,,0.01,Wunderground v.1.15,2013-01-23 03:07:00,
2013-01-22 22:12:00,18.6,-2.3,30.09,WNW,298,7.0,-999.0,39,0.00,,,0.01,Wunderground v.1.15,2013-01-23 03:12:00,
2013-01-22 22:17:00,18.4,-1.4,30.10,NW,322,8.0,-999.0,41,0.00,,,0.01,Wunderground v.1.15,2013-01-23 03:17:00,
2013-01-22 22:23:00,18.4,-1.4,30.10,NW,309,8.0,-999.0,41,0.00,,,0.01,Wunderground v.1.15,2013-01-23 03:23:00,
2013-01-22 22:29:00,18.4,-1.9,30.10,NW,309,7.0,-999.0,40,0.00,,,0.01,Wunderground v.1.15,2013-01-23 03:29:00,
2013-01-22 22:35:00,18.3,-2.0,30.10,WNW,300,7.0,-999.0,40,0.00,,,0.01,Wunderground v.1.15,2013-01-23 03:35:00,
2013-01-22 22:41:00,18.2,-2.1,30.10,NW,306,8.0,-999.0,40,0.00,,,0.01,Wunderground v.1.15,2013-01-23 03:41:00,
2013-01-22 22:46:00,18.2,-1.1,30.10,North,350,7.0,-999.0,42,0.00,,,0.01,Wunderground v.1.15,2013-01-23 03:46:00,
2013-01-22 22:51:00,18.1,-1.2,30.10,NW,311,8.0,-999.0,42,0.00,,,0.01,Wunderground v.1.15,2013-01-23 03:51:00,
2013-01-22 22:57:00,18.0,-1.8,30.10,NW,325,8.0,-999.0,41,0.00,,,0.01,Wunderground v.1.15,2013-01-23 03:57:00,
2013-01-22 23:02:00,17.9,-1.9,30.11,WNW,303,8.0,-999.0,41,0.00,,,0.01,Wunderground v.1.15,2013-01-23 04:02:00,
2013-01-22 23:08:00,17.8,-1.5,30.11,WNW,290,8.0,-999.0,42,0.00,,,0.01,Wunderground v.1.15,2013-01-23 04:08:00,
2013-01-22 23:14:00,17.7,-1.0,30.11,North,349,7.0,-999.0,43,0.00,,,0.01,Wunderground v.1.15,2013-01-23 04:14:00,
2013-01-22 23:20:00,17.7,-1.0,30.11,NNW,341,7.0,-999.0,43,0.00,,,0.01,Wunderground v.1.15,2013-01-23 04:20:00,
2013-01-22 23:25:00,17.6,-0.6,30.11,North,359,7.0,-999.0,44,0.00,,,0.01,Wunderground v.1.15,2013-01-23 04:25:00,
2013-01-22 23:31:00,17.6,-0.6,30.11,WNW,284,7.0,-999.0,44,0.00,,,0.01,Wunderground v.1.15,2013-01-23 04:31:00,
2013-01-22 23:37:00,17.3,-0.4,30.10,NW,305,8.0,-999.0,45,0.00,,,0.01,Wunderground v.1.15,2013-01-23 04:37:00,
2013-01-22 23:43:00,17.4,-1.3,30.10,NW,308,8.0,-999.0,43,0.00,,,0.01,Wunderground v.1.15,2013-01-23 04:43:00,
2013-01-22 23:49:00,17.3,-1.4,30.10,NW,313,8.0,-999.0,43,0.00,,,0.01,Wunderground v.1.15,2013-01-23 04:49:00,
2013-01-22 23:55:00,17.2,-2.0,30.10,WSW,250,7.0,-999.0,42,0.00,,,0.01,Wunderground v.1.15,2013-01-23 04:55:00,